Погода в Токме

Погода в Токме : погода сейчас, прогноз погоды и архив. Всё, что Вы хотите узнать о погоде в Токме!

Хотите узнать прогноз погоды в Токме? Тогда Вам сюда: Погода в Токме

Поиск расширенной информации на нашем сайте:

Другие новости

Новости СМИ2

Главная страница сайта

Новости сайта

03.07.2017

Напоминаем, что на нашем специализированном сайте Метеоцентр.Азия вы можете получить высокодетализированные автоматические прогнозы погоды по пунктам России, СНГ и мира в авиационном формате (включающие направление и скорость ветра, видимость, явления погоды, количество и форму облачности, нижнюю и верхнюю границу облачности).

Рекомендуем: Форум просмотр темы куплю Ситроен www.zarulem.by.

Погода в Токме - сегодня

Время (UTC), дата Ветер
(°,м/с) 
Видим.   Явления Облачность Т
(°С)
Тd
(°С)
f(%) Тe
(°С)
Pmin
(гПа)
dP
(гПа)
Po
(мм)
O2
(г/м3)
Тmin Tmax R s Состояние
почвы
15 16.08.17 тихо ()   н/о  дымка{туман}  ?/?  
+10.2 +8.1 87 +10  1016.7  0.3  724  280           
18 16.08.17 тихо ()   н/о  туман  ?/?  
+8.3 +8.3 100 +8  1016.4  -0.5  723  281           
21 16.08.17 тихо ()   0200 м  туман  ?/?  
+7.6 +7.6 100 +8  1016.6  723  282           
03 17.08.17 тихо ()   1000 м  дымка{туман}  ?/?  
+13.5 +10 79 +15  1014  -1.4  722  275           
06 17.08.17 050 (СВ) 10 км  дым{туман}  10/0 средняя 
[As op]
+18.1 +8.7 54 +19  1012  -1.2  721  271           
09 17.08.17 050 (СВ) 4000 м  мгла{туман}  10/4 600 м кучево-дожд., средняя 
[Cb cap|As op]
+18.1 +8 52 +19  1011.2  -0.8  721  271           
12 17.08.17 020 (С) 1000 м  мгла{туман}  ?/?  
+16.9 +8.5 58 +18  1011.5  0.1  721  272    +19       
15 17.08.17 тихо ()   н/о  дымка{туман}  ?/?  
+10.1 +8.7 91 +10  1013.7  0.9  721  279           
18 17.08.17 тихо ()   н/о  туман  ?/?  
+5.8 +5.8 100 +6  1015.2  0.7  722  284           
21 17.08.17 тихо ()   0500 м  туман  ?/?  
+2.3 +2.3 100 +2  1016.8  0.9  723  288           
00 18.08.17 тихо ()   0500 м  туман  ?/?  
+2.6 +2.6 100 +3  1018.1  1.1  723  288  +1         
03 18.08.17 тихо ()   2000 м  дымка{туман}  3/0 верхняя 
[Ci fib]
+12.6 +9.5 81 +14  1016.2  0.2  724  277           
06 18.08.17 230 (ЮЗ) 2000 м  мгла{туман}  6/0 средняя 
[Ac trans]
+20.3 +6.4 40 +20  1014.5  -0.4  723  270           
09 18.08.17 230 (ЮЗ) 4000 м  мгла{туман}  9/9 600 м 
[Sc]
+19.5 +6.1 42 +21  1014.5  723  271           
15 18.08.17 тихо ()   н/о    9/9 600 м 
[Sc]
+11.7 +9.5 86 +13  1016.5  0.6  724  278           
18 18.08.17 тихо ()   н/о    10/10 600 м 
[Sc]
+9.6 +8.6 93 +10  1017.2  0.3  724  280           
21 18.08.17 тихо ()   20000 м  туман поземный  9/0 средняя 
[Ac und]
+8.9 +8.5 97 +9  1017.6  0.2  724  281           
00 19.08.17 тихо ()   4000 м  дымка  9/9 600 м 
[Sc]
+9.4 +9.2 99 +10  1017.6  0.1  724  280  +7.3         
03 19.08.17 тихо ()   4000 м  дымка  ясно 
+18.4 +10.4 60 +21  1016  724  271           
06 19.08.17 340 (С) 4000 м  мгла{туман}  8/8 600 м 
[Cu med, cong]
+21.5 +10.6 50 +24  1013.6  -1.7  723  268           
09 19.08.17 050 (СВ) 4000 м  мгла{туман}  6/6 600 м 
[Cu med, cong]
+22 +8.9 43 +22  1012.1  -1.4  722  268           
12 19.08.17 тихо ()   4000 м  мгла{туман}  3/3 600 м 
[Sc]
+17.7 +9.8 60 +19  1012.6  -0.2  722  271    +22.3       
15 19.08.17 тихо ()   н/о  дымка{туман}  ясно 
+9.6 +7.7 88 +10  1014.1  722  280           
18 19.08.17 тихо ()   н/о  туман поземный  ясно 
+7 +7 100 +7  1014.2  -0.5  721  282           
21 19.08.17 тихо ()   20000 м  туман поземный  ясно 
+6.2 +6.2 100 +6  1015.2  -0.3  721  283           
Время (UTC), дата Ветер
(°,м/с) 
Видим.   Явления Облачность Т
(°С)
Тd
(°С)
f(%) Тe
(°С)
Pmin
(гПа)
dP
(гПа)
Po
(мм)
O2
(г/м3)
Тmin Tmax R s Состояние
почвы

Для получения пояснительной информации подведите курсор к названию столбца.

ПОГОДА в Токме - архив

Всё, что Вы хотите узнать о погоде в Токме - удобно и подробно!

Выберите нужную дату (начиная с 1 января 2015* года) и нажмите кнопку "Найти".
Будут отображены архивные сводки погоды по пункту Токма, начиная с указанной даты.


Отображать данные в формате CSV (для использования в таблицах Excel)


Внимание! Наш архив погоды предназначен исключительно для личного некоммерческого использования в познавательных целях. Если Вам необходимы официальные справки о состоянии погоды (для производственных, юридических, коммерческих и т.п. целей), обращайтесь в органы Росгидромета.

*Примечание: данная дата относится к архиву по метеостанциям СССР (Россия, СНГ, Балтия).
Архив по метеостанциям Зарубежной Европы и Азии (кроме Китая) хранится 10 дней, по другим регионам земного шара (Китай, Африка, Америка, Австралия, Океания) - 1 день.

Токма - район местоположения метеостанции


Название, широта, долгота, высота метеостанции:
Токма 58.3°ш. 105.9°д. 435 м над ур. моря [Российская Федерация]

Дополнительная информация

В oтличие oт бoльшинства пoгoдных сайтoв мы публикуем пoдрoбную метеoинфoрмацию в детальнoм прoфессиoнальнoм фoрмате.

Характеристики температуры и влажнoсти вoздуха измеряются на высoте 2 м в тени вдали oт зданий и деревьев.
Скoрoсть ветра измеряется на высoте 10 м (на урoвне рoста челoвека скoрoсть ветра ниже в 1.5-2 раза). Если метеoстанция нахoдится в гoрoде или в лесу, тo скoрoсть ветра занижена на 2-4 м/с пo сравнению с oткрытым местoм. Скoрoсть ветра над акватoриями крупных рек и oзёр, а также на вершинах хoлмoв на 2-5 м/с выше, чем в oбычных услoвиях.
Атмoсфернoе давление в разных тoчках местнoсти мoжет значительнo oтличаться oт давления на метеoстанции, в зависимoсти oт услoвий рельефа (при пoдъёме на 10 м давление пoнижается примернo на 1 мм рт.ст.).